SCP
0 0 0 0 0 0 0 0 0 0 0 0 -0 0 0 0 -0 -0 -0 -0 0 0 0 0 0 0 0 0 0 0 0 0 0 0 -0 -0 -0 -0 -0 -0 0 0 -0 0 0 0 0
0 0 0 0 0 0 0 0 0 0 0 0 0 0 0 0 -0 -0 -0 -0 -0 -0 -0 -0 0 0 0 0 0 0 0 0 0 0 -0 -0 -0 -0 -0 -0 0 0 0 0 0 0 0
0 0 0 0 0 0 0 0 0 0 0 0 0 0 0 0 0 -0 -0 -0 -0 -0 -0 -0 0 0 -0 -0 0 0 0 0 0 0 -0 -0 -0 -0 0 0 0 0 0 0 0 0 0
0 0 0 0 0 0 0 0 0 0 0 0 0 0 -0 -0 -0 -0 -0 -0 -0 -0 -0 -0 -0 -0 0 0 0 0 -0 -0 0 0 -0 0 0 0 0 0 0 0 0 0 -0 0 0
0 0 0 0 0 0 0 0 0 -0 -0 -0 0 0 -0 -0 -0 -0 -0 -0 -0 -0 -0 -0 -0 0 0 0 0 0 0 -0 0 -0 0 0 0 0 0 0 0 -0 0 -0 -0 0 0
0 0 0 0 0 0 0 0 -0 -0 -0 -0 0 0 -0 -0 -0 0 0 0 -0 -0 0 0 -0 -0 -0 -0 0 0 0 -0 0 -0 -0 0 0 0 0 0 -0 -0 0 -0 -0 -0 0
-0 -0 -0 -0 -0 -0 0 0 0 0 0 0 0 0 -0 -0 -0 -0 0 0 0 0 0 -0 0 -0 -0 0 0 -0 0 0 -0 -0 -0 0 -0 -0 -0 0 0 0 0 0 0 -0 0
-0 -0 -0 -0 -0 -0 -0 -0 -0 -0 0 0 0 -0 -0 -0 -0 -0 0 0 0 -0 -0 -0 -0 0 0 -0 -0 0 0 -0 -0 -0 -0 -0 0 0 -0 -0 -0 -0 0 0 0 0 0
-0 -0 -0 -0 -0 -0 -0 -0 -0 -0 0 0 0 -0 -0 -0 -0 -0 0 -0 -0 -0 -0 -0 0 0 0 -0 -0 0 0 -0 -0 -0 -0 -0 -0 -0 0 0 0 0 0 0 0 0 0
-0 -0 -0 -0 -0 -0 -0 -0 -0 -0 -0 -0 -0 -0 0 -0 -0 0 -0 0 0 -0 -0 0 -0 0 0 -0 0 0 0 -0 -0 0 0 0 -0 0 0 0 0 0 0 0 0 0 0
-0 -0 -0 -0 -0 -0 -0 -0 -0 -0 -0 -0 -0 -0 -0 0 -0 -0 -0 -0 -0 -0 0 -0 0 0 0 -0 0 0 0 -0 -0 -0 -0 -0 -0 -0 0 0 0 0 0 0 0 0 0
-0 -0 -0 -0 -0 -0 -0 -0 -0 -0 -0 -0 -0 -0 -0 -0 0 -0 -0 -0 0 0 0 -0 0 -0 0 0 0 0 -0 0 0 0 0 0 0 -0 0 0 0 0 0 0 0 0 0
-0 -0 -0 -0 -0 -0 -0 -0 -0 -0 -0 -0 -0 -0 0 -0 -0 -0 -0 -0 0 -0 -0 0 0 0 -0 0 0 0 0 -0 0 0 0 0 0 0 0 0 0 0 0 0 0 0 0
-0 -0 -0 -0 -0 -0 -0 -0 -0 -0 -0 -0 -0 -0 -0 -0 -0 -0 -0 -0 0 -0 -0 -0 0 -0 -0 0 0 0 0 0 0 0 0 0 0 0 0 -0 0 0 0 0 0 0 0
-0 -0 -0 -0 -0 -0 -0 -0 -0 -0 -0 -0 -0 0 0 0 -0 0 -0 0 -0 0 0 0 -0 0 0 0 0 0 0 0 0 0 0 0 0 0 0 0 0 0 0 0 0 0 0
-0 -0 -0 -0 -0 -0 -0 -0 -0 -0 -0 -0 0 -0 0 0 0 0 0 0 0 0 0 0 0 0 0 0 0 0 -0 0 0 0 0 0 0 0 0 0 0 0 0 0 0 0 0
-0 -0 -0 -0 -0 -0 -0 -0 -0 -0 -0 -0 0 0 0 0 0 0 -0 0 0 0 0 0 0 0 0 0 0 0 0 0 0 0 0 0 0 0 0 0 0 0 0 0 -0 -0 0
-0 -0 -0 -0 -0 -0 -0 -0 -0 -0 -0 -0 0 0 0 0 0 -0 0 0 0 0 0 0 0 0 0 0 0 0 0 0 0 0 0 0 0 0 0 -0 -0 -0 0 0 0 0 0
-0 -0 -0 -0 -0 -0 -0 -0 -0 -0 -0 -0 0 0 0 0 -0 0 0 0 0 0 0 0 0 0 0 0 0 0 0 0 0 0 0 0 0 0 0 0 -0 0 0 0 0 0 0
-0 -0 -0 -0 -0 -0 -0 -0 -0 -0 -0 -0 0 -0 0 0 0 0 0 0 0 0 0 0 0 0 0 0 0 0 0 0 0 0 0 0 0 -0 -0 -0 0 0 0 0 0 0 0
-0 -0 -0 -0 -0 -0 -0 -0 -0 -0 -0 -0 0 0 0 0 0 0 0 0 0 0 0 0 0 0 0 0 0 0 0 0 0 0 0 0 0 0 -0 -0 -0 0 0 0 0 -0 0
-0 -0 -0 -0 -0 -0 -0 -0 -0 -0 -0 0 0 0 0 0 0 0 0 0 0 0 0 0 0 0 0 0 0 0 0 0 0 0 0 0 0 0 -0 -0 0 0 0 0 0 0 0
0 -0 -0 -0 -0 -0 -0 -0 -0 -0 -0 0 0 0 0 0 0 0 0 0 0 0 0 0 0 0 0 0 0 0 0 0 0 0 0 0 0 0 0 -0 -0 0 0 0 0 0 0
0 0 -0 -0 -0 -0 -0 -0 -0 -0 0 0 0 0 0 0 0 0 0 0 0 0 0 0 0 0 0 0 0 0 0 0 0 0 0 0 0 0 0 0 0 0 0 0 -0 0 -0
0 0 -0 0 0 0 0 -0 -0 -0 -0 0 0 0 0 0 0 0 0 0 0 0 0 0 0 0 0 0 0 0 0 0 0 0 0 0 0 0 0 0 0 0 0 0 0 0 0
0 0 0 0 0 0 0 -0 -0 -0 -0 0 0 0 0 0 0 0 0 0 0 0 0 0 0 0 0 0 -0 0 0 0 0 0 0 0 0 0 0 0 0 0 0 0 0 0 0
0 0 -0 -0 0 0 -0 -0 -0 0 0 0 0 0 0 0 0 0 0 0 0 0 0 0 0 0 0 0 0 -0 0 0 0 0 0 -0 0 -0 -0 -0 0 0 0 0 0 0 0
0 0 0 -0 -0 0 0 -0 -0 0 0 0 0 0 0 0 0 0 0 0 0 0 0 0 0 0 0 0 0 0 0 0 0 0 0 0 0 0 0 0 0 0 0 0 0 0 0
0 0 0 -0 0 -0 -0 -0 0 0 0 0 0 0 0 0 -0 0 0 0 0 0 0 0 0 0 0 0 0 0 0 0 0 0 0 0 0 0 0 0 0 0 0 0 0 0 0
Wind_Speed_500mb
31 32 33 33 33 33 33 33 32 31 31 30 29 29 30 31 28 26 25 25 24 25 25 26 25 23 21 15 33 11 11 13 15 16 26 30 34 37 33 35 33 37 40 49 53 64 68
34 35 37 37 36 35 35 34 33 32 31 29 28 29 29 30 28 25 24 23 24 22 23 22 21 20 17 27 10 11 2 12 6 16 21 32 32 33 38 37 33 35 38 50 50 59 51
39 39 39 39 38 37 36 35 33 32 31 29 29 27 28 29 27 25 23 22 23 21 19 18 19 20 23 40 9 12 10 10 13 17 28 27 31 34 29 32 36 41 34 37 39 52 41
41 41 41 39 37 36 36 34 33 31 31 29 27 27 27 27 24 22 21 22 23 20 21 22 20 17 20 7 14 17 16 14 11 15 21 23 23 30 37 42 42 22 32 32 37 39 43
40 41 42 40 37 35 34 33 32 30 29 27 25 25 26 25 21 20 21 23 24 23 20 17 7 9 19 12 8 11 18 18 12 14 16 17 17 27 35 32 30 33 27 38 41 42 39
42 42 42 41 38 35 31 29 27 27 25 24 23 23 24 22 18 16 20 26 23 18 11 11 14 17 20 19 1 6 13 19 12 13 17 19 18 18 17 20 26 35 33 24 30 40 42
44 46 45 41 38 33 28 25 23 22 22 21 20 21 20 19 14 10 18 17 14 1 15 26 12 20 24 16 10 11 12 16 19 18 22 33 22 25 31 37 34 35 40 37 40 28 40
47 49 49 41 38 30 24 21 19 17 16 16 16 17 16 15 11 7 12 14 16 20 22 37 11 16 11 12 12 12 9 17 23 22 29 24 28 31 32 35 35 40 35 33 26 39 34
48 51 52 43 40 31 23 19 16 14 12 12 12 12 13 10 8 10 10 17 20 24 13 29 5 10 6 14 12 19 10 20 26 31 29 29 35 33 20 28 25 28 29 32 35 36 38
50 52 53 48 42 35 26 20 17 14 12 11 10 9 7 3 5 14 18 14 22 14 10 18 2 9 13 12 10 6 8 19 32 34 30 23 35 30 31 26 28 32 36 38 37 33 28
51 53 53 49 44 37 28 23 19 16 13 10 8 5 3 11 13 14 13 20 18 10 2 12 15 1 11 9 19 9 12 18 28 31 33 35 36 37 21 30 29 35 37 36 35 37 40
51 52 53 51 44 37 29 25 24 20 15 12 10 7 3 6 15 11 22 21 13 9 3 13 15 21 16 14 20 18 46 16 20 34 30 36 46 36 39 37 31 35 34 34 31 33 33
49 51 52 51 45 36 26 23 23 23 20 18 15 12 11 14 13 21 22 16 9 7 13 21 27 24 24 12 23 27 22 30 19 20 28 42 33 15 40 48 47 41 30 23 29 29 31
45 48 50 50 47 37 27 20 18 17 16 17 14 10 14 24 13 23 15 18 15 24 25 29 24 30 28 7 8 23 31 23 22 25 23 25 31 38 23 26 23 42 34 20 16 28 37
44 46 48 49 48 43 30 20 18 17 16 20 22 17 10 18 16 16 21 9 15 18 22 24 29 21 22 31 28 26 26 20 26 32 24 25 33 56 51 46 38 38 28 41 36 38 33
44 45 47 48 48 47 40 25 17 18 17 19 29 24 15 14 15 20 19 9 8 15 22 21 19 18 23 26 22 22 21 30 23 31 35 29 43 37 41 49 38 35 36 34 11 16 22
45 46 46 47 47 47 45 37 22 17 15 18 35 15 8 13 19 36 8 14 12 17 17 15 17 17 20 21 23 24 12 24 22 23 34 33 25 33 39 33 44 36 32 35 4 5 5
48 47 47 47 47 46 45 41 28 15 14 21 25 15 18 17 26 6 15 11 6 11 17 11 9 15 14 22 17 22 17 22 29 30 30 24 16 25 42 41 39 33 27 21 14 24 17
55 51 48 48 49 47 46 43 32 15 13 23 19 9 14 21 9 11 5 13 9 13 12 11 8 9 12 16 12 21 17 18 21 29 19 19 13 22 31 33 42 38 34 35 29 19 33
62 58 54 51 50 50 47 42 32 17 11 15 21 9 8 12 15 16 4 2 3 6 0 9 8 9 13 18 20 12 24 17 30 15 6 1 14 28 25 39 37 40 43 44 28 19 33
65 65 63 57 53 51 50 45 34 18 8 14 11 10 7 10 16 8 10 4 8 2 5 1 8 5 14 13 23 20 27 25 28 12 16 5 22 31 34 41 35 30 25 29 37 8 14
67 69 68 66 59 54 52 51 43 18 9 7 17 15 5 5 7 17 7 2 10 5 3 1 6 15 18 17 12 22 27 22 12 24 18 17 16 27 36 41 14 20 16 16 23 27 30
66 68 70 70 67 60 53 50 47 40 20 16 23 11 15 6 11 11 6 6 7 8 9 9 11 17 19 20 23 26 26 22 20 14 12 9 12 18 25 34 39 9 20 24 20 19 23
63 66 70 72 70 64 58 49 44 37 25 23 23 22 25 19 6 8 6 5 11 9 13 15 12 13 17 23 27 28 30 30 30 22 19 12 20 11 19 23 10 1 7 7 16 8 15
63 64 68 71 70 67 62 54 44 35 24 16 27 21 21 18 29 9 12 12 12 10 16 20 18 7 19 25 21 21 25 28 27 29 11 10 18 18 13 10 11 6 11 6 9 13 8
60 62 65 68 69 68 64 58 49 38 30 16 20 19 19 23 9 14 9 13 14 21 15 30 11 8 15 22 21 26 22 7 7 11 13 12 19 16 33 11 6 6 8 13 10 3 4
61 61 63 65 66 68 67 63 53 43 31 23 14 25 17 28 32 2 11 13 11 14 14 23 6 10 17 17 20 22 12 13 9 19 15 19 13 22 15 6 8 12 9 10 8 7 8
63 64 64 63 64 67 68 68 57 43 36 25 17 17 17 24 35 31 19 18 20 16 15 6 12 11 17 16 15 9 10 7 14 21 16 24 12 17 13 13 4 13 13 7 4 1 5
65 67 68 64 65 70 68 69 63 45 35 27 18 13 21 25 43 39 28 23 24 24 18 12 9 11 10 7 10 11 19 18 14 7 4 6 9 6 5 10 20 14 13 7 12 11 8
Wind_Direction_500mb
329 324 317 313 311 310 309 305 302 304 305 307 309 311 314 314 313 307 306 306 306 307 309 309 308 312 317 275 269 276 300 266 273 244 222 231 238 238 252 245 250 241 259 250 254 268 274
333 327 321 316 312 309 305 302 301 300 300 302 305 309 315 314 313 311 310 311 308 309 308 308 311 311 307 269 283 294 234 257 228 222 228 236 237 240 257 259 254 252 255 272 257 262 268
344 336 327 318 312 306 302 301 298 297 296 296 299 306 310 314 312 311 311 309 306 307 307 311 312 308 280 249 289 275 230 240 247 230 242 245 247 259 268 267 268 257 266 260 264 258 259
350 345 338 328 316 307 300 297 296 292 290 292 297 303 306 310 310 307 309 307 304 307 303 301 301 300 263 312 246 246 241 248 232 227 259 286 266 268 272 271 284 245 241 255 263 243 244
350 346 343 336 326 314 305 298 292 290 288 290 295 298 300 309 310 310 313 309 307 306 299 288 294 287 281 255 252 238 230 235 228 248 253 261 278 269 265 251 257 245 242 239 244 259 223
354 349 345 341 334 322 312 304 295 290 289 291 293 293 296 307 305 316 322 312 311 297 309 272 241 263 265 254 106 283 230 235 227 244 244 240 230 237 232 266 257 258 229 254 236 231 217
359 356 351 346 340 331 319 310 303 296 294 294 294 292 293 302 304 326 339 335 334 304 237 246 271 246 294 260 273 250 214 226 235 239 254 214 227 240 237 216 240 263 279 294 305 298 181
4 2 358 354 352 344 335 326 317 309 304 298 292 291 298 298 290 281 324 331 5 327 303 233 265 254 314 246 261 198 210 231 225 251 246 245 227 244 252 257 251 254 269 276 294 298 302
8 6 5 3 1 357 353 347 341 332 323 314 305 300 296 299 299 281 318 320 329 326 272 241 170 64 89 178 280 149 189 229 267 261 264 271 279 292 273 281 281 274 276 283 276 277 279
11 10 10 9 8 6 2 359 355 351 343 332 318 305 298 254 298 297 265 318 331 321 270 150 212 75 182 246 213 326 297 262 273 283 284 305 301 274 288 264 265 266 271 255 259 259 264
12 12 13 13 12 11 12 12 10 7 4 359 348 327 266 214 308 304 316 320 323 297 150 288 71 259 219 319 336 129 282 271 272 284 293 298 303 300 245 270 280 271 265 272 277 277 277
12 13 14 14 14 15 19 21 20 17 17 18 21 19 24 325 280 323 320 312 314 243 304 353 38 344 336 24 350 335 329 245 330 345 293 276 282 299 301 308 279 297 297 285 270 271 256
11 13 13 15 15 15 15 13 18 29 40 44 42 31 7 309 279 318 318 312 229 277 313 31 355 336 320 32 330 334 349 319 12 342 326 320 290 328 352 336 343 335 319 279 268 241 245
10 11 13 14 15 11 7 360 4 20 34 34 24 6 351 357 322 310 314 271 281 12 27 347 335 297 292 35 344 350 317 324 48 2 340 339 319 356 358 346 310 329 324 300 288 308 305
9 10 12 12 12 11 2 349 334 327 330 328 326 308 323 346 321 304 300 286 27 9 351 344 315 1 342 351 2 336 329 328 45 30 8 322 317 324 321 333 321 302 280 288 299 299 295
10 10 11 11 10 9 6 351 329 318 318 318 309 293 264 323 301 294 276 77 79 19 342 345 343 356 331 352 348 326 324 47 17 17 360 325 308 314 314 323 302 285 306 302 5 298 295
12 11 11 10 9 9 6 360 341 326 323 319 306 257 16 337 300 272 339 60 79 57 4 355 352 340 350 355 332 329 341 83 35 357 347 325 324 319 314 313 322 320 311 311 273 242 296
14 12 10 10 10 9 8 5 355 331 310 312 300 283 359 339 283 10 39 16 346 20 9 4 358 331 6 332 331 308 347 360 18 345 334 11 308 305 315 300 282 283 326 350 335 289 270
17 13 11 10 8 9 9 6 3 347 322 315 281 323 0 342 298 104 123 99 50 11 27 355 9 356 344 311 311 343 333 332 354 341 30 351 332 312 326 322 337 343 327 308 321 269 262
19 17 12 9 9 8 9 8 5 349 333 313 292 297 118 50 34 339 110 130 160 104 293 335 325 319 331 328 301 307 297 358 347 53 350 109 275 310 312 314 316 323 358 352 330 314 308
21 19 16 12 8 8 7 10 8 2 313 317 282 50 356 343 47 10 328 338 290 74 184 201 221 347 333 316 312 307 350 337 321 138 319 360 314 317 321 307 325 19 5 2 331 8 310
21 20 18 16 11 7 7 7 13 13 38 7 338 348 355 107 336 291 151 72 324 15 280 14 292 329 305 284 353 319 321 320 310 349 323 15 316 331 311 305 263 87 39 348 345 11 354
20 19 18 16 14 11 6 7 11 18 20 18 347 319 291 177 196 250 59 25 345 319 187 279 323 307 304 9 329 302 291 277 270 280 333 310 319 315 304 332 312 50 348 1 348 358 338
16 15 14 13 12 11 9 5 6 13 27 14 346 327 299 293 236 1 357 288 285 307 309 314 288 303 337 326 303 273 252 245 235 236 216 276 294 286 289 324 340 349 204 337 315 320 324
13 12 9 8 8 8 7 5 0 1 5 16 348 343 318 306 316 249 211 260 279 242 233 261 289 355 318 300 281 271 256 216 266 219 230 229 280 294 282 317 227 180 360 11 357 316 1
8 6 5 5 4 3 2 0 357 352 347 337 339 337 309 287 17 5 312 267 285 287 266 216 219 238 294 287 279 263 269 17 282 309 268 229 267 267 281 271 357 147 56 116 112 312 37
3 1 359 360 360 359 357 354 351 346 339 335 309 328 321 297 300 300 283 324 301 292 272 265 200 285 250 269 283 304 326 315 279 313 298 306 310 294 317 292 119 79 18 156 283 0 50
360 358 356 353 354 354 353 352 347 341 333 323 281 293 305 295 289 289 279 268 267 244 271 37 288 172 268 260 286 315 295 360 261 330 334 302 298 293 306 313 299 71 344 316 56 340 322
356 355 354 353 351 349 348 347 347 339 329 314 306 292 294 282 279 296 277 267 261 268 285 270 287 264 344 310 325 322 315 297 272 253 184 275 285 292 319 270 265 194 178 199 210 228 282
Wind_Speed_850mb
31 32 33 33 33 33 33 33 32 31 31 30 29 29 30 31 28 26 25 25 24 25 25 26 25 23 21 15 33 11 11 13 15 16 26 30 34 37 33 35 33 37 40 49 53 64 68
34 35 37 37 36 35 35 34 33 32 31 29 28 29 29 30 28 25 24 23 24 22 23 22 21 20 17 27 10 11 2 12 6 16 21 32 32 33 38 37 33 35 38 50 50 59 51
39 39 39 39 38 37 36 35 33 32 31 29 29 27 28 29 27 25 23 22 23 21 19 18 19 20 23 40 9 12 10 10 13 17 28 27 31 34 29 32 36 41 34 37 39 52 41
41 41 41 39 37 36 36 34 33 31 31 29 27 27 27 27 24 22 21 22 23 20 21 22 20 17 20 7 14 17 16 14 11 15 21 23 23 30 37 42 42 22 32 32 37 39 43
40 41 42 40 37 35 34 33 32 30 29 27 25 25 26 25 21 20 21 23 24 23 20 17 7 9 19 12 8 11 18 18 12 14 16 17 17 27 35 32 30 33 27 38 41 42 39
42 42 42 41 38 35 31 29 27 27 25 24 23 23 24 22 18 16 20 26 23 18 11 11 14 17 20 19 1 6 13 19 12 13 17 19 18 18 17 20 26 35 33 24 30 40 42
44 46 45 41 38 33 28 25 23 22 22 21 20 21 20 19 14 10 18 17 14 1 15 26 12 20 24 16 10 11 12 16 19 18 22 33 22 25 31 37 34 35 40 37 40 28 40
47 49 49 41 38 30 24 21 19 17 16 16 16 17 16 15 11 7 12 14 16 20 22 37 11 16 11 12 12 12 9 17 23 22 29 24 28 31 32 35 35 40 35 33 26 39 34
48 51 52 43 40 31 23 19 16 14 12 12 12 12 13 10 8 10 10 17 20 24 13 29 5 10 6 14 12 19 10 20 26 31 29 29 35 33 20 28 25 28 29 32 35 36 38
50 52 53 48 42 35 26 20 17 14 12 11 10 9 7 3 5 14 18 14 22 14 10 18 2 9 13 12 10 6 8 19 32 34 30 23 35 30 31 26 28 32 36 38 37 33 28
51 53 53 49 44 37 28 23 19 16 13 10 8 5 3 11 13 14 13 20 18 10 2 12 15 1 11 9 19 9 12 18 28 31 33 35 36 37 21 30 29 35 37 36 35 37 40
51 52 53 51 44 37 29 25 24 20 15 12 10 7 3 6 15 11 22 21 13 9 3 13 15 21 16 14 20 18 46 16 20 34 30 36 46 36 39 37 31 35 34 34 31 33 33
49 51 52 51 45 36 26 23 23 23 20 18 15 12 11 14 13 21 22 16 9 7 13 21 27 24 24 12 23 27 22 30 19 20 28 42 33 15 40 48 47 41 30 23 29 29 31
45 48 50 50 47 37 27 20 18 17 16 17 14 10 14 24 13 23 15 18 15 24 25 29 24 30 28 7 8 23 31 23 22 25 23 25 31 38 23 26 23 42 34 20 16 28 37
44 46 48 49 48 43 30 20 18 17 16 20 22 17 10 18 16 16 21 9 15 18 22 24 29 21 22 31 28 26 26 20 26 32 24 25 33 56 51 46 38 38 28 41 36 38 33
44 45 47 48 48 47 40 25 17 18 17 19 29 24 15 14 15 20 19 9 8 15 22 21 19 18 23 26 22 22 21 30 23 31 35 29 43 37 41 49 38 35 36 34 11 16 22
45 46 46 47 47 47 45 37 22 17 15 18 35 15 8 13 19 36 8 14 12 17 17 15 17 17 20 21 23 24 12 24 22 23 34 33 25 33 39 33 44 36 32 35 4 5 5
48 47 47 47 47 46 45 41 28 15 14 21 25 15 18 17 26 6 15 11 6 11 17 11 9 15 14 22 17 22 17 22 29 30 30 24 16 25 42 41 39 33 27 21 14 24 17
55 51 48 48 49 47 46 43 32 15 13 23 19 9 14 21 9 11 5 13 9 13 12 11 8 9 12 16 12 21 17 18 21 29 19 19 13 22 31 33 42 38 34 35 29 19 33
62 58 54 51 50 50 47 42 32 17 11 15 21 9 8 12 15 16 4 2 3 6 0 9 8 9 13 18 20 12 24 17 30 15 6 1 14 28 25 39 37 40 43 44 28 19 33
65 65 63 57 53 51 50 45 34 18 8 14 11 10 7 10 16 8 10 4 8 2 5 1 8 5 14 13 23 20 27 25 28 12 16 5 22 31 34 41 35 30 25 29 37 8 14
67 69 68 66 59 54 52 51 43 18 9 7 17 15 5 5 7 17 7 2 10 5 3 1 6 15 18 17 12 22 27 22 12 24 18 17 16 27 36 41 14 20 16 16 23 27 30
66 68 70 70 67 60 53 50 47 40 20 16 23 11 15 6 11 11 6 6 7 8 9 9 11 17 19 20 23 26 26 22 20 14 12 9 12 18 25 34 39 9 20 24 20 19 23
63 66 70 72 70 64 58 49 44 37 25 23 23 22 25 19 6 8 6 5 11 9 13 15 12 13 17 23 27 28 30 30 30 22 19 12 20 11 19 23 10 1 7 7 16 8 15
63 64 68 71 70 67 62 54 44 35 24 16 27 21 21 18 29 9 12 12 12 10 16 20 18 7 19 25 21 21 25 28 27 29 11 10 18 18 13 10 11 6 11 6 9 13 8
60 62 65 68 69 68 64 58 49 38 30 16 20 19 19 23 9 14 9 13 14 21 15 30 11 8 15 22 21 26 22 7 7 11 13 12 19 16 33 11 6 6 8 13 10 3 4
61 61 63 65 66 68 67 63 53 43 31 23 14 25 17 28 32 2 11 13 11 14 14 23 6 10 17 17 20 22 12 13 9 19 15 19 13 22 15 6 8 12 9 10 8 7 8
63 64 64 63 64 67 68 68 57 43 36 25 17 17 17 24 35 31 19 18 20 16 15 6 12 11 17 16 15 9 10 7 14 21 16 24 12 17 13 13 4 13 13 7 4 1 5
65 67 68 64 65 70 68 69 63 45 35 27 18 13 21 25 43 39 28 23 24 24 18 12 9 11 10 7 10 11 19 18 14 7 4 6 9 6 5 10 20 14 13 7 12 11 8
Wind_Direction_850mb
329 324 317 313 311 310 309 305 302 304 305 307 309 311 314 314 313 307 306 306 306 307 309 309 308 312 317 275 269 276 300 266 273 244 222 231 238 238 252 245 250 241 259 250 254 268 274
333 327 321 316 312 309 305 302 301 300 300 302 305 309 315 314 313 311 310 311 308 309 308 308 311 311 307 269 283 294 234 257 228 222 228 236 237 240 257 259 254 252 255 272 257 262 268
344 336 327 318 312 306 302 301 298 297 296 296 299 306 310 314 312 311 311 309 306 307 307 311 312 308 280 249 289 275 230 240 247 230 242 245 247 259 268 267 268 257 266 260 264 258 259
350 345 338 328 316 307 300 297 296 292 290 292 297 303 306 310 310 307 309 307 304 307 303 301 301 300 263 312 246 246 241 248 232 227 259 286 266 268 272 271 284 245 241 255 263 243 244
350 346 343 336 326 314 305 298 292 290 288 290 295 298 300 309 310 310 313 309 307 306 299 288 294 287 281 255 252 238 230 235 228 248 253 261 278 269 265 251 257 245 242 239 244 259 223
354 349 345 341 334 322 312 304 295 290 289 291 293 293 296 307 305 316 322 312 311 297 309 272 241 263 265 254 106 283 230 235 227 244 244 240 230 237 232 266 257 258 229 254 236 231 217
359 356 351 346 340 331 319 310 303 296 294 294 294 292 293 302 304 326 339 335 334 304 237 246 271 246 294 260 273 250 214 226 235 239 254 214 227 240 237 216 240 263 279 294 305 298 181
4 2 358 354 352 344 335 326 317 309 304 298 292 291 298 298 290 281 324 331 5 327 303 233 265 254 314 246 261 198 210 231 225 251 246 245 227 244 252 257 251 254 269 276 294 298 302
8 6 5 3 1 357 353 347 341 332 323 314 305 300 296 299 299 281 318 320 329 326 272 241 170 64 89 178 280 149 189 229 267 261 264 271 279 292 273 281 281 274 276 283 276 277 279
11 10 10 9 8 6 2 359 355 351 343 332 318 305 298 254 298 297 265 318 331 321 270 150 212 75 182 246 213 326 297 262 273 283 284 305 301 274 288 264 265 266 271 255 259 259 264
12 12 13 13 12 11 12 12 10 7 4 359 348 327 266 214 308 304 316 320 323 297 150 288 71 259 219 319 336 129 282 271 272 284 293 298 303 300 245 270 280 271 265 272 277 277 277
12 13 14 14 14 15 19 21 20 17 17 18 21 19 24 325 280 323 320 312 314 243 304 353 38 344 336 24 350 335 329 245 330 345 293 276 282 299 301 308 279 297 297 285 270 271 256
11 13 13 15 15 15 15 13 18 29 40 44 42 31 7 309 279 318 318 312 229 277 313 31 355 336 320 32 330 334 349 319 12 342 326 320 290 328 352 336 343 335 319 279 268 241 245
10 11 13 14 15 11 7 360 4 20 34 34 24 6 351 357 322 310 314 271 281 12 27 347 335 297 292 35 344 350 317 324 48 2 340 339 319 356 358 346 310 329 324 300 288 308 305
9 10 12 12 12 11 2 349 334 327 330 328 326 308 323 346 321 304 300 286 27 9 351 344 315 1 342 351 2 336 329 328 45 30 8 322 317 324 321 333 321 302 280 288 299 299 295
10 10 11 11 10 9 6 351 329 318 318 318 309 293 264 323 301 294 276 77 79 19 342 345 343 356 331 352 348 326 324 47 17 17 360 325 308 314 314 323 302 285 306 302 5 298 295
12 11 11 10 9 9 6 360 341 326 323 319 306 257 16 337 300 272 339 60 79 57 4 355 352 340 350 355 332 329 341 83 35 357 347 325 324 319 314 313 322 320 311 311 273 242 296
14 12 10 10 10 9 8 5 355 331 310 312 300 283 359 339 283 10 39 16 346 20 9 4 358 331 6 332 331 308 347 360 18 345 334 11 308 305 315 300 282 283 326 350 335 289 270
17 13 11 10 8 9 9 6 3 347 322 315 281 323 0 342 298 104 123 99 50 11 27 355 9 356 344 311 311 343 333 332 354 341 30 351 332 312 326 322 337 343 327 308 321 269 262
19 17 12 9 9 8 9 8 5 349 333 313 292 297 118 50 34 339 110 130 160 104 293 335 325 319 331 328 301 307 297 358 347 53 350 109 275 310 312 314 316 323 358 352 330 314 308
21 19 16 12 8 8 7 10 8 2 313 317 282 50 356 343 47 10 328 338 290 74 184 201 221 347 333 316 312 307 350 337 321 138 319 360 314 317 321 307 325 19 5 2 331 8 310
21 20 18 16 11 7 7 7 13 13 38 7 338 348 355 107 336 291 151 72 324 15 280 14 292 329 305 284 353 319 321 320 310 349 323 15 316 331 311 305 263 87 39 348 345 11 354
20 19 18 16 14 11 6 7 11 18 20 18 347 319 291 177 196 250 59 25 345 319 187 279 323 307 304 9 329 302 291 277 270 280 333 310 319 315 304 332 312 50 348 1 348 358 338
16 15 14 13 12 11 9 5 6 13 27 14 346 327 299 293 236 1 357 288 285 307 309 314 288 303 337 326 303 273 252 245 235 236 216 276 294 286 289 324 340 349 204 337 315 320 324
13 12 9 8 8 8 7 5 0 1 5 16 348 343 318 306 316 249 211 260 279 242 233 261 289 355 318 300 281 271 256 216 266 219 230 229 280 294 282 317 227 180 360 11 357 316 1
8 6 5 5 4 3 2 0 357 352 347 337 339 337 309 287 17 5 312 267 285 287 266 216 219 238 294 287 279 263 269 17 282 309 268 229 267 267 281 271 357 147 56 116 112 312 37
3 1 359 360 360 359 357 354 351 346 339 335 309 328 321 297 300 300 283 324 301 292 272 265 200 285 250 269 283 304 326 315 279 313 298 306 310 294 317 292 119 79 18 156 283 0 50
360 358 356 353 354 354 353 352 347 341 333 323 281 293 305 295 289 289 279 268 267 244 271 37 288 172 268 260 286 315 295 360 261 330 334 302 298 293 306 313 299 71 344 316 56 340 322
356 355 354 353 351 349 348 347 347 339 329 314 306 292 294 282 279 296 277 267 261 268 285 270 287 264 344 310 325 322 315 297 272 253 184 275 285 292 319 270 265 194 178 199 210 228 282